Location: Malvern Link
(52.1333°N, 2.3000°W)
Time: 16:20:13
(UTC+00:00)

Cosmos 1634 Rocket - Pass Details

Date: 01 December 2021
Orbit: 959 x 993 km, 82.9° (Epoch: 23 January)

Event Time Altitude Azimuth Distance (km) Brightness Sun altitude
Rises 04:28:12 0° 351° (N) 3,716 7.0 -30.8°
Reaches altitude 10° 04:30:51 10° 357° (N) 2,760 6.3 -30.4°
Maximum altitude 04:36:59 50° 72° (ENE) 1,244 4.8 -29.4°
Drops below altitude 10° 04:43:01 10° 147° (SSE) 2,720 6.7 -28.5°
Sets 04:45:36 0° 153° (SSE) 3,658 7.3 -28.1°
